When you browse on this site, cookies collect data to enhance your experience and personalize the content and advertising you see.
Visit our Privacy Policy to learn more. By continuing to use the site, you agree to this use of cookies and data.

Stündliche Wetter Bolshie Matveevichi

Heute, 26 September, Samstag

Zeit Temperatur Niederschläge Wind Luftdruck Luftfeuchtigkeit
00:00 +17°C° 0 mm 5 m/S 739 mmHg 77%
01:00 +17°C° 0 mm 5 m/S 739 mmHg 78%
02:00 +17°C° 0 mm 5 m/S 738 mmHg 74%
03:00 +17°C° 0 mm 6 m/S 738 mmHg 74%
04:00 +16°C° 0 mm 6 m/S 738 mmHg 74%
05:00 +16°C° 0 mm 6 m/S 738 mmHg 74%
06:00 +17°C° 0 mm 6 m/S 738 mmHg 73%
07:00 +17°C° 0 mm 7 m/S 737 mmHg 72%
08:00 +18°C° 0 mm 7 m/S 737 mmHg 71%
09:00 +20°C° 0 mm 8 m/S 738 mmHg 65%
10:00 +22°C° 0 mm 8 m/S 738 mmHg 59%
11:00 +23°C° 0 mm 9 m/S 738 mmHg 54%
12:00 +24°C° 0 mm 9 m/S 738 mmHg 52%
13:00 +26°C° 0 mm 9 m/S 737 mmHg 50%
14:00 +26°C° 0 mm 9 m/S 737 mmHg 47%
15:00 +26°C° 0 mm 8 m/S 737 mmHg 51%
16:00 +24°C° 0 mm 7 m/S 737 mmHg 55%
17:00 +23°C° 0 mm 6 m/S 737 mmHg 58%
18:00 +22°C° 0 mm 6 m/S 737 mmHg 59%
19:00 +22°C° 0 mm 7 m/S 737 mmHg 61%
20:00 +21°C° 0 mm 7 m/S 737 mmHg 62%
21:00 +21°C° 0 mm 7 m/S 737 mmHg 60%
22:00 +21°C° 0 mm 7 m/S 737 mmHg 59%
23:00 +21°C° 0 mm 8 m/S 737 mmHg 57%

Morgen, 27 September, Sonntag

Zeit Temperatur Niederschläge Wind Luftdruck Luftfeuchtigkeit
00:00 +20°C° 0 mm 7 m/S 737 mmHg 59%
01:00 +20°C° 0 mm 7 m/S 737 mmHg 61%
02:00 +20°C° 0 mm 7 m/S 737 mmHg 63%
03:00 +20°C° 0 mm 8 m/S 737 mmHg 63%
04:00 +20°C° 0 mm 8 m/S 736 mmHg 63%
05:00 +20°C° 0 mm 8 m/S 736 mmHg 64%
06:00 +18°C° 0.2 mm 9 m/S 736 mmHg 66%
07:00 +18°C° 0.2 mm 9 m/S 736 mmHg 69%
08:00 +18°C° 0.2 mm 9 m/S 737 mmHg 71%
09:00 +18°C° 0.2 mm 9 m/S 737 mmHg 68%
10:00 +18°C° 0.2 mm 10 m/S 737 mmHg 66%
11:00 +18°C° 0.2 mm 10 m/S 737 mmHg 63%
12:00 +18°C° 0.9 mm 9 m/S 738 mmHg 68%
13:00 +17°C° 0.9 mm 9 m/S 738 mmHg 72%
14:00 +17°C° 0.9 mm 8 m/S 739 mmHg 76%
15:00 +15°C° 0.2 mm 7 m/S 740 mmHg 78%
16:00 +14°C° 0.2 mm 7 m/S 741 mmHg 79%
17:00 +11°C° 0.2 mm 6 m/S 742 mmHg 81%
18:00 +10°C° 0 mm 5 m/S 742 mmHg 82%
19:00 +10°C° 0 mm 4 m/S 743 mmHg 84%
20:00 +10°C° 0 mm 3 m/S 744 mmHg 85%
21:00 +10°C° 0 mm 3 m/S 745 mmHg 87%
22:00 +9°C° 0 mm 3 m/S 746 mmHg 89%
23:00 +9°C° 0 mm 3 m/S 747 mmHg 91%

übermorgen, 28 September, Montag

Zeit Temperatur Niederschläge Wind Luftdruck Luftfeuchtigkeit
00:00 +9°C° 0 mm 3 m/S 747 mmHg 91%
01:00 +9°C° 0 mm 2 m/S 747 mmHg 91%
02:00 +9°C° 0 mm 2 m/S 747 mmHg 91%
03:00 +9°C° 0 mm 2 m/S 748 mmHg 92%
04:00 +9°C° 0 mm 2 m/S 748 mmHg 93%
05:00 +8°C° 0 mm 2 m/S 748 mmHg 94%
06:00 +9°C° 0 mm 3 m/S 749 mmHg 91%
07:00 +9°C° 0 mm 3 m/S 749 mmHg 87%
08:00 +10°C° 0 mm 3 m/S 749 mmHg 84%
09:00 +12°C° 0 mm 3 m/S 749 mmHg 75%
10:00 +13°C° 0 mm 3 m/S 749 mmHg 67%
11:00 +15°C° 0 mm 4 m/S 750 mmHg 59%
12:00 +17°C° 0 mm 4 m/S 750 mmHg 55%
13:00 +18°C° 0 mm 4 m/S 749 mmHg 52%
14:00 +19°C° 0 mm 4 m/S 749 mmHg 49%
15:00 +18°C° 0 mm 3 m/S 749 mmHg 54%
16:00 +18°C° 0 mm 3 m/S 749 mmHg 59%
17:00 +17°C° 0 mm 3 m/S 749 mmHg 64%
18:00 +16°C° 0 mm 3 m/S 749 mmHg 66%
19:00 +14°C° 0 mm 4 m/S 748 mmHg 69%
20:00 +14°C° 0 mm 4 m/S 748 mmHg 72%
21:00 +14°C° 0 mm 4 m/S 748 mmHg 72%
22:00 +14°C° 0 mm 5 m/S 748 mmHg 71%
23:00 +14°C° 0 mm 5 m/S 748 mmHg 71%

29 September, Dienstag

Zeit Temperatur Niederschläge Wind Luftdruck Luftfeuchtigkeit
00:00 +14°C° 0 mm 5 m/S 748 mmHg 68%
01:00 +14°C° 0 mm 5 m/S 747 mmHg 65%
02:00 +15°C° 0 mm 5 m/S 747 mmHg 63%
03:00 +15°C° 0 mm 5 m/S 747 mmHg 63%
04:00 +14°C° 0 mm 5 m/S 747 mmHg 64%
05:00 +14°C° 0 mm 5 m/S 746 mmHg 64%
06:00 +14°C° 0 mm 5 m/S 746 mmHg 66%
07:00 +14°C° 0 mm 5 m/S 746 mmHg 68%
08:00 +13°C° 0 mm 5 m/S 746 mmHg 69%
09:00 +14°C° 0 mm 4 m/S 746 mmHg 68%
10:00 +15°C° 0 mm 4 m/S 746 mmHg 66%
11:00 +17°C° 0 mm 4 m/S 746 mmHg 64%
12:00 +17°C° 0.2 mm 4 m/S 746 mmHg 68%
13:00 +16°C° 0.2 mm 3 m/S 746 mmHg 73%
14:00 +16°C° 0.2 mm 2 m/S 746 mmHg 77%
15:00 +15°C° 0.1 mm 2 m/S 746 mmHg 80%
16:00 +14°C° 0.1 mm 3 m/S 746 mmHg 83%
17:00 +13°C° 0.1 mm 3 m/S 745 mmHg 85%
18:00 +14°C° 0.1 mm 2 m/S 746 mmHg 88%
19:00 +14°C° 0.1 mm 2 m/S 746 mmHg 90%
20:00 +14°C° 0.1 mm 2 m/S 746 mmHg 93%
21:00 +14°C° 0 mm 2 m/S 746 mmHg 92%
22:00 +14°C° 0 mm 2 m/S 745 mmHg 92%
23:00 +14°C° 0 mm 2 m/S 745 mmHg 91%

30 September, Mittwoch

Zeit Temperatur Niederschläge Wind Luftdruck Luftfeuchtigkeit
00:00 +14°C° 0.3 mm 2 m/S 745 mmHg 92%
01:00 +13°C° 0.3 mm 3 m/S 745 mmHg 93%
02:00 +13°C° 0.3 mm 3 m/S 744 mmHg 94%
03:00 +13°C° 1.5 mm 3 m/S 744 mmHg 95%
04:00 +13°C° 1.5 mm 3 m/S 744 mmHg 95%
05:00 +13°C° 1.5 mm 4 m/S 744 mmHg 95%
06:00 +13°C° 0.6 mm 4 m/S 743 mmHg 94%
07:00 +13°C° 0.6 mm 4 m/S 743 mmHg 92%
08:00 +12°C° 0.6 mm 4 m/S 743 mmHg 91%
09:00 +13°C° 0.2 mm 4 m/S 743 mmHg 88%
10:00 +13°C° 0.2 mm 4 m/S 743 mmHg 84%
11:00 +13°C° 0.2 mm 4 m/S 743 mmHg 81%
12:00 +13°C° 0.2 mm 4 m/S 743 mmHg 82%
13:00 +12°C° 0.2 mm 4 m/S 743 mmHg 82%
14:00 +12°C° 0.2 mm 4 m/S 742 mmHg 82%
15:00 +12°C° 0.2 mm 4 m/S 742 mmHg 84%
16:00 +12°C° 0.2 mm 4 m/S 742 mmHg 85%
17:00 +12°C° 0.2 mm 4 m/S 742 mmHg 86%
18:00 +12°C° 0.2 mm 4 m/S 742 mmHg 87%
19:00 +12°C° 0.2 mm 5 m/S 742 mmHg 87%
20:00 +12°C° 0.2 mm 5 m/S 742 mmHg 88%
21:00 +12°C° 0.3 mm 5 m/S 742 mmHg 89%
22:00 +12°C° 0.3 mm 5 m/S 742 mmHg 90%
23:00 +12°C° 0.3 mm 5 m/S 742 mmHg 91%

1 Oktober, Donnerstag

Zeit Temperatur Niederschläge Wind Luftdruck Luftfeuchtigkeit
00:00 +12°C° 0.1 mm 5 m/S 741 mmHg 90%
01:00 +12°C° 0.1 mm 5 m/S 741 mmHg 90%
02:00 +12°C° 0.1 mm 4 m/S 741 mmHg 89%
03:00 +10°C° 0 mm 5 m/S 741 mmHg 88%
04:00 +10°C° 0 mm 5 m/S 741 mmHg 87%
05:00 +10°C° 0 mm 5 m/S 741 mmHg 86%
06:00 +10°C° 0.2 mm 5 m/S 740 mmHg 87%
07:00 +10°C° 0.2 mm 5 m/S 740 mmHg 88%
08:00 +12°C° 0.2 mm 5 m/S 740 mmHg 89%
09:00 +12°C° 0.1 mm 5 m/S 740 mmHg 86%
10:00 +13°C° 0.1 mm 5 m/S 740 mmHg 83%
11:00 +14°C° 0.1 mm 5 m/S 740 mmHg 80%
12:00 +13°C° 0.3 mm 5 m/S 739 mmHg 82%
13:00 +13°C° 0.3 mm 4 m/S 739 mmHg 84%
14:00 +13°C° 0.3 mm 4 m/S 739 mmHg 86%
15:00 +13°C° 0.2 mm 4 m/S 739 mmHg 88%
16:00 +13°C° 0.2 mm 4 m/S 739 mmHg 91%
17:00 +12°C° 0.2 mm 3 m/S 739 mmHg 93%
18:00 +12°C° 0.1 mm 4 m/S 739 mmHg 92%
19:00 +12°C° 0.1 mm 5 m/S 740 mmHg 92%
20:00 +11°C° 0.1 mm 6 m/S 740 mmHg 91%
21:00 +11°C° 0.2 mm 6 m/S 740 mmHg 90%
22:00 +11°C° 0.2 mm 6 m/S 740 mmHg 90%
23:00 +11°C° 0.2 mm 7 m/S 740 mmHg 89%
Mehr zeigen